Weather History for Platteville, WI

Change the Weather History Date:

Sunday, February 17, 2013

  Actual Average (KDBQ) Record (KDBQ)
Temperature  
Mean Temperature 21 °F 24 °F  
Max Temperature 32 °F 32 °F 61 °F (1981)
Min Temperature 10 °F 16 °F -13 °F (1958)
Degree Days  
Heating Degree Days 44 41  
Month to date heating degree days 732  
Since 1 July heating degree days 4969  
Cooling Degree Days 0 0  
Month to date cooling degree days 0  
Year to date cooling degree days 0  
Moisture  
Dew Point 12 °F    
Average Humidity 68    
Maximum Humidity 74    
Minimum Humidity 59    
Precipitation  
Precipitation 0.00 in 0.06 in 1.21 in (1887)
Month to date precipitation 0.80  
Year to date precipitation 1.97  
Snow  
Snow 0.00 in 0.30 in - ()
Month to date snowfall 5.9  
Since 1 July snowfall 30.5  
Snow Depth -    
Sea Level Pressure  
Sea Level Pressure 30.05 in    
Wind  
Wind Speed 8 mph (SE)    
Max Wind Speed 17 mph    
Max Gust Speed 20 mph    
Visibility 10 miles    
Events      
T = Trace of Precipitation, MM = Missing Value Source: NWS Daily Summary

Daily Weather History Graph

Daily Weather History Graph

Search for Another Location

Airport:

Trip Planner

Search our weather history database for the weather conditions in past years. The results will help you decide how hot, cold, wet, or windy it might be!

Date:

Astronomy

Feb. 17, 2013 Rise Set
Actual Time 6:55 AM CST 5:36 PM CST
Civil Twilight 6:26 AM CST 6:05 PM CST
Nautical Twilight 5:53 AM CST 6:38 PM CST
Astronomical Twilight 5:21 AM CST 7:11 PM CST
Moon 10:37 AM CST (2/17) 12:42 AM CST (2/17)
Length of Visible Light 11h 38m
Length of Day
10h 41m
Waxing Crescent, 49% of the Moon is Illuminated
Feb 17
Waxing Crescent
Feb 17
First Quarter
Feb 25
Full
Mar 4
Last Quarter
Mar 11
New

Hourly Weather History & Observations

Time (CST) Temp. Windchill Dew Point Humidity Pressure Visibility Wind Dir Wind Speed Gust Speed Precip Events Conditions
12:15 AM 12.2 °F 1.7 °F 3.2 °F 67% 30.15 in 10.0 mi ESE 6.9 mph - N/A   Clear
12:35 AM 12.2 °F 1.7 °F 3.2 °F 67% 30.15 in 10.0 mi ESE 6.9 mph - N/A   Clear
12:55 AM 12.2 °F 2.9 °F 3.2 °F 67% 30.15 in 10.0 mi ESE 5.8 mph - N/A   Clear
1:15 AM 12.2 °F 4.3 °F 3.2 °F 67% 30.15 in 10.0 mi ESE 4.6 mph - N/A   Clear
1:35 AM 12.2 °F 4.3 °F 3.2 °F 67% 30.15 in 10.0 mi ESE 4.6 mph - N/A   Clear
1:55 AM 12.2 °F 1.7 °F 3.2 °F 67% 30.15 in 10.0 mi ESE 6.9 mph - N/A   Clear
2:15 AM 10.4 °F 0.8 °F 3.2 °F 73% 30.14 in 10.0 mi ESE 5.8 mph - N/A   Clear
2:35 AM 10.4 °F 0.8 °F 3.2 °F 73% 30.14 in 10.0 mi East 5.8 mph - N/A   Clear
2:55 AM 10.4 °F 2.2 °F 3.2 °F 73% 30.15 in 10.0 mi ESE 4.6 mph - N/A   Clear
3:15 AM 10.4 °F 2.2 °F 3.2 °F 73% 30.14 in 10.0 mi East 4.6 mph - N/A   Clear
3:35 AM 10.4 °F 0.8 °F 3.2 °F 73% 30.14 in 10.0 mi ESE 5.8 mph - N/A   Clear
3:55 AM 10.4 °F 4.0 °F 3.2 °F 73% 30.15 in 10.0 mi SE 3.5 mph - N/A   Clear
4:15 AM 10.4 °F 2.2 °F 1.4 °F 67% 30.14 in 10.0 mi ESE 4.6 mph - N/A   Clear
4:35 AM 10.4 °F 2.2 °F 3.2 °F 73% 30.15 in 10.0 mi ESE 4.6 mph - N/A   Clear
4:55 AM 10.4 °F 2.2 °F 3.2 °F 73% 30.15 in 10.0 mi SE 4.6 mph - N/A   Clear
5:15 AM 10.4 °F 2.2 °F 3.2 °F 73% 30.15 in 10.0 mi SE 4.6 mph - N/A   Clear
5:35 AM 10.4 °F 2.2 °F 3.2 °F 73% 30.15 in 10.0 mi ESE 4.6 mph - N/A   Clear
5:55 AM 10.4 °F 2.2 °F 3.2 °F 73% 30.15 in 10.0 mi SE 4.6 mph - N/A   Clear
6:15 AM 10.4 °F 2.2 °F 3.2 °F 73% 30.15 in 10.0 mi SE 4.6 mph - N/A   Clear
6:35 AM 10.4 °F 0.8 °F 3.2 °F 73% 30.15 in 10.0 mi ESE 5.8 mph - N/A   Clear
6:55 AM 10.4 °F 0.8 °F 3.2 °F 73% 30.14 in 10.0 mi SE 5.8 mph - N/A   Clear
7:15 AM 10.4 °F 2.2 °F 3.2 °F 73% 30.14 in 10.0 mi SE 4.6 mph - N/A   Clear
7:35 AM 10.4 °F 0.8 °F 3.2 °F 73% 30.14 in 10.0 mi ESE 5.8 mph - N/A   Clear
7:55 AM 12.2 °F 2.9 °F 5.0 °F 73% 30.14 in 10.0 mi SE 5.8 mph - N/A   Clear
8:15 AM 14.0 °F 3.9 °F 5.0 °F 67% 30.14 in 10.0 mi SE 6.9 mph - N/A   Clear
8:35 AM 14.0 °F 2.9 °F 6.8 °F 73% 30.14 in 10.0 mi SSE 8.1 mph - N/A   Clear
8:55 AM 17.6 °F 5.7 °F 8.6 °F 68% 30.13 in 10.0 mi SSE 10.4 mph - N/A   Clear
9:15 AM 17.6 °F 5.0 °F 8.6 °F 68% 30.13 in 10.0 mi SSE 11.5 mph - N/A   Clear
9:35 AM 17.6 °F 5.7 °F 8.6 °F 68% 30.13 in 10.0 mi SE 10.4 mph - N/A   Clear
9:55 AM 19.4 °F 8.6 °F 8.6 °F 63% 30.13 in 10.0 mi SSE 9.2 mph - N/A   Clear
10:15 AM 19.4 °F 7.9 °F 10.4 °F 68% 30.13 in 10.0 mi SSE 10.4 mph - N/A   Clear
10:35 AM 21.2 °F 9.5 °F 10.4 °F 63% 30.14 in 10.0 mi SSE 11.5 mph - N/A   Clear
10:55 AM 21.2 °F 10.1 °F 10.4 °F 63% 30.14 in 10.0 mi SSE 10.4 mph - N/A   Clear
11:15 AM 23.0 °F 13.1 °F 12.2 °F 63% 30.13 in 10.0 mi SE 9.2 mph - N/A   Clear
11:35 AM 23.0 °F 11.7 °F 12.2 °F 63% 30.12 in 10.0 mi SE 11.5 mph - N/A   Clear
11:55 AM 24.8 °F 15.3 °F 12.2 °F 59% 30.11 in 10.0 mi SE 9.2 mph - N/A   Clear
12:15 PM 26.6 °F 16.8 °F 14.0 °F 59% 30.10 in 10.0 mi SE 10.4 mph - N/A   Clear
12:55 PM 26.6 °F 15.7 °F 14.0 °F 59% 30.07 in 10.0 mi ESE 12.7 mph - N/A   Clear
1:15 PM 28.4 °F 19.1 °F 15.8 °F 59% 30.06 in 10.0 mi SSE 10.4 mph - N/A   Clear
1:35 PM 28.4 °F 17.5 °F 17.6 °F 64% 30.06 in 10.0 mi SE 13.8 mph - N/A   Clear
1:55 PM 28.4 °F 18.5 °F 17.6 °F 64% 30.04 in 10.0 mi SE 11.5 mph - N/A   Clear
2:15 PM 30.2 °F 20.8 °F 17.6 °F 60% 30.03 in 10.0 mi SE 11.5 mph - N/A   Clear
2:35 PM 30.2 °F 19.3 °F 17.6 °F 60% 30.01 in 10.0 mi SE 15.0 mph - N/A   Clear
2:55 PM 30.2 °F 20.8 °F 17.6 °F 60% 30.01 in 10.0 mi SE 11.5 mph - N/A   Clear
3:15 PM 30.2 °F 20.2 °F 17.6 °F 60% 30.01 in 10.0 mi SE 12.7 mph - N/A   Clear
3:35 PM 30.2 °F 20.8 °F 19.4 °F 64% 30.01 in 10.0 mi SE 11.5 mph - N/A   Clear
3:55 PM 32.0 °F 22.5 °F 19.4 °F 60% 29.99 in 10.0 mi SE 12.7 mph - N/A   Clear
4:15 PM 32.0 °F 22.1 °F 19.4 °F 60% 29.98 in 10.0 mi SE 13.8 mph - N/A   Clear
4:35 PM 30.2 °F 19.3 °F 19.4 °F 64% 29.97 in 10.0 mi SE 15.0 mph - N/A   Clear
4:55 PM 30.2 °F 19.3 °F 19.4 °F 64% 29.97 in 10.0 mi SE 15.0 mph - N/A   Clear
5:15 PM 30.2 °F 19.8 °F 19.4 °F 64% 29.96 in 10.0 mi SE 13.8 mph 18.4 mph N/A   Clear
5:35 PM 30.2 °F 19.8 °F 19.4 °F 64% 29.96 in 10.0 mi SE 13.8 mph 18.4 mph N/A   Clear
5:55 PM 30.2 °F 19.8 °F 19.4 °F 64% 29.96 in 10.0 mi SE 13.8 mph - N/A   Clear
6:15 PM 30.2 °F 20.8 °F 19.4 °F 64% 29.95 in 10.0 mi SE 11.5 mph - N/A   Clear
6:35 PM 28.4 °F 18.0 °F 19.4 °F 69% 29.94 in 10.0 mi SE 12.7 mph - N/A   Clear
6:55 PM 28.4 °F 17.5 °F 19.4 °F 69% 29.92 in 10.0 mi SE 13.8 mph 18.4 mph N/A   Clear
7:15 PM 28.4 °F 18.0 °F 19.4 °F 69% 29.93 in 10.0 mi SE 12.7 mph - N/A   Clear
7:35 PM 28.4 °F 17.5 °F 19.4 °F 69% 29.92 in 10.0 mi SE 13.8 mph 19.6 mph N/A   Clear
7:55 PM 28.4 °F 18.0 °F 21.2 °F 74% 29.92 in 10.0 mi SE 12.7 mph 18.4 mph N/A   Clear
8:15 PM 28.4 °F 18.0 °F 21.2 °F 74% 29.91 in 10.0 mi SE 12.7 mph - N/A   Clear
8:35 PM 28.4 °F 16.6 °F 21.2 °F 74% 29.91 in 10.0 mi SE 16.1 mph - N/A   Clear
8:55 PM 30.2 °F 19.3 °F 21.2 °F 69% 29.90 in 10.0 mi SE 15.0 mph - N/A   Clear
9:15 PM 30.2 °F 19.3 °F 21.2 °F 69% 29.90 in 10.0 mi SE 15.0 mph - N/A   Clear
9:35 PM 30.2 °F 19.3 °F 21.2 °F 69% 29.89 in 10.0 mi SE 15.0 mph - N/A   Clear
9:55 PM 30.2 °F 19.8 °F 21.2 °F 69% 29.88 in 10.0 mi SE 13.8 mph - N/A   Clear
10:15 PM 30.2 °F 18.9 °F 21.2 °F 69% 29.86 in 10.0 mi SE 16.1 mph - N/A   Clear
10:35 PM 30.2 °F 18.5 °F 21.2 °F 69% 29.85 in 10.0 mi SE 17.3 mph - N/A   Clear
10:55 PM 30.2 °F 18.9 °F 21.2 °F 69% 29.84 in 10.0 mi SE 16.1 mph - N/A   Clear
11:15 PM 30.2 °F 19.3 °F 21.2 °F 69% 29.84 in 10.0 mi SE 15.0 mph - N/A   Clear
11:35 PM 30.2 °F 19.8 °F 21.2 °F 69% 29.84 in 10.0 mi SE 13.8 mph - N/A   Clear
11:55 PM 30.2 °F 20.2 °F 21.2 °F 69% 29.83 in 10.0 mi SE 12.7 mph - N/A   Clear